星链-37078(STARLINK-37078)

导读

STARLINK-37078(NORAD编号68174)是SpaceX星链星座中的一颗低轨宽带卫星。星链项目旨在通过近地轨道卫星群,为全球提供高速、低延迟的宽带互联网服务,覆盖偏远地区和海洋等传统网络难以触及的区域。 该卫星采用星链标准化平板设计,适配猎鹰9号火箭密集发射,大概率搭载星链二代通信载荷,支持卫星间激光互联技术,可动态调度传输路径,提升网络稳定性,为用户提供流媒体、在线办公、远程通信等服务,是SpaceX构建全球卫星互联网星座的组成单元之一。

Basic Information
目录编号:
68174
目录名称:
STARLINK-37078
国际标识:
2026-050H
轨道中心:
EARTH
卫星名称:
星链-37078
卫星全名:
星链-37078(STARLINK-37078)
卫星状态:
在轨 (已飞行174 天)
发射日期:
2026-03-14 UTC
国别 :
美国 (US)
星等 :
--
Orbit Information
数据来源 国际轨道数据
星历时间: 2026-09-03T13:30:22+0800
1天前
查看轨道信息
半长轴: 6840.793km
偏心率: 0.0001077
轨道倾角: 53.159°
近地点辐角 88.979°
升交点赤经 158.662°
平近点角 271.133°
近地点: 461.919km
远地点: 463.393km
周期: 93.847分钟
每日圈数: 15.34416
Detailed Information
固有亮度:
5
最大亮度:
2.5
卫星平台:
Starlink V1.0
覆盖范围:
全球
运营商:
太空探索技术公司
运营商所在国:
美国
制造商(研发单位):
太空探索技术公司
制造商所在国:
美国
使用方式:
暂无
Satellite Introduction
Starlink 计划是 SpaceX 推出的全球卫星互联网项目,通过发射低轨道卫星,为全球尤其是偏远地区提供高速、低延迟的互联网服务。自 2019 年起,Starlink 已部署数千颗卫星,旨在缩小全球数字鸿沟,推动互联网普及。该项目还为军事、航空等行业提供通信支持,带来广泛经济效益。
2D Orbit Map
3D Orbit Map
Orbit Altitude Analysis Chart
Orbit Inclination Analysis Chart
Orbit Comprehensive Analysis Chart
View Comprehensive Chart
Conjunction Data List
Event ID Objects TCA Miss Dist (km) Collision Risk Probability Collision Risk Index (CRI) Action
CDM_260904-035206-460406-817421
2026-09-04T
03:52:54+0000
0.504 km
远距离
1.30588E-4 高风险 0.77
CDM_260904-105406-460406-817421
2026-09-04T
10:54:59+0000
0.930 km
远距离
2.078246E-5 中风险 0.61
CDM_260905-020306-445906-817421
2026-09-05T
02:03:36+0000
1.689 km
极远距离
4.05999E-6 低风险 0.47
CDM_260903-185805-703106-817422
2026-09-03T
18:58:54+0000
1.810 km
极远距离
3.698935E-6 低风险 0.46
CDM_260903-173705-468906-817422
OBJECT H (54689)
2026-09-03T
17:37:53+0000
1.723 km
极远距离
3.697561E-6 低风险 0.46
CDM_260830-235006-460406-817421
2026-08-30T
23:50:02+0000
2.848 km
极远距离
9.456E-7 极低风险 0.35